Location: Recife
(8.0585°S, 34.8848°W)
Time: 20:20:45
(UTC-03:00)

Explorer 11/Cluster Stage 4 - Pass Details

Date: 15 April 2026
Orbit: 463 x 1174 km, 28.8° (Epoch: 16 May)

Event Time Altitude Azimuth Distance (km) Brightness Sun altitude
Rises 08:42:52 0° 285° (WNW) 3,386 9.5 47.1°
Reaches altitude 10° 08:47:29 10° 318° (NW) 2,642 9.3 48.1°
Maximum altitude 08:49:25 11° 335° (NNW) 2,614 9.4 48.5°
Drops below altitude 10° 08:51:27 10° 353° (N) 2,785 9.7 49.0°
Sets 08:56:47 0° 24° (NNE) 3,893 10.6 50.2°
